Regional Weather Roundup
Issued by NWS

Home | Current Version | Previous Version | Graphics & Text | Print | Product List | Glossary On
Versions: 1 2 3 4 5 6 7 8 9 10 11 12 13 14 15 16 17 18 19 20 21 22 23 24 25 26 27 28 29 30 31 32 33 34 35 36 37 38 39 40 41 42 43 44 45 46 47 48 49 50
000
ASUS45 KTFX 201919
RWRMT
MONTANA HOURLY WEATHER ROUNDUP
NATIONAL WEATHER SERVICE GREAT FALLS MT
119 PM MDT SAT SEP 20 2014

NOTE: "FAIR" INDICATES FEW OR NO CLOUDS BELOW 12000 FEET WITH NO
SIGNIFICANT WEATHER AND/OR OBSTRUCTIONS TO VISIBILITY.

* THESE STATIONS ARE NOT UNDER NWS QUALITY CONTROL. THEY DO NOT
   REPORT WEATHER SUCH AS PRECIPITATION OR FOG.

MTZ001>007-043-202000-
WEST OF THE DIVIDE
CITY           SKY/WX    TMP DP  RH WIND       PRES   REMARKS
KALISPELL      SUNNY     70  46  42 CALM      30.23F
MISSOULA       SUNNY     70  45  41 CALM      30.24F
BUTTE          SUNNY     68  32  26 N6        30.32F
MULLAN PASS    SUNNY     63  45  52 N/A       30.33S
* ESSEX        N/A       69  45  42 N5         N/A
* LINCOLN      N/A       68  42  39 S4G10      N/A
* LOOKOUT PASS N/A       65  46  50 SE7G13     N/A
* POLSON       N/A       72  49  44 S3         N/A
* RONAN APT    SUNNY     72  48  43 N/A        N/A
* SEELEY LAKE  N/A       68  44  42 S3         N/A
* THOMP F APT  SUNNY     70  43  38 SW6G11     N/A
$$

MTZ008-052>055-202000-
SOUTHWEST MONTANA
CITY           SKY/WX    TMP DP  RH WIND       PRES   REMARKS
BOZEMAN        SUNNY     68  39  35 VRB3      30.28F
DILLON         SUNNY     66  41  40 VRB3      30.29F
W YELLOWSTONE  SUNNY     66  36  33 N3        30.36F
* THREE FORKS  SUNNY     68  68 100 N/A        N/A
* BOULDER HILL N/A       65  36  34 S4         N/A
* MONIDA PASS  N/A       64  37  37 VRB2G10    N/A
* RAYNOLDS PAS N/A       65  37  36 NE1G8      N/A
* WHITEHALL    N/A       69  45  42 E3         N/A
* WISE RIVER   N/A       65  41  42 E3         N/A
$$

MTZ009>010-012-014-046-048-049-054-202000-
EAST SLOPES AND CENTRAL MONTANA
CITY           SKY/WX    TMP DP  RH WIND       PRES   REMARKS
CUT BANK       SUNNY     66  43  43 CALM      30.26F
GREAT FALLS    SUNNY     70  43  38 NE3       30.25F
HELENA         SUNNY     72  43  35 NE6       30.24F
MALMSTROM AFB  SUNNY     68  43  40 SE3       30.25F
* CONRAD       SUNNY     70  46  42 N/A        N/A
* EAST GLACIER N/A       61  44  54 SE7        N/A
* MONARCH      N/A       63  37  38 N4G9       N/A
* PENDROY      N/A       66  47  51 S7         N/A
* ROGERS PASS  N/A       65  38  37 SE4        N/A
* SAINT MARY   N/A       68  43  40 S5G11      N/A
* SWEET GRASS  N/A       65  34  32 S6G12      N/A
* WHITE SULPH  N/A       68  36  31 NE2        N/A
$$

MTZ011-013-016-021-035-040-045-047-050-051-202000-
NORTH CENTRAL MONTANA
CITY           SKY/WX    TMP DP  RH WIND       PRES   REMARKS
HAVRE          SUNNY     72  34  25 W8        30.23S
LEWISTOWN      SUNNY     68  43  40 VRB6      30.28S
* CHINOOK      SUNNY     70  36  29 W8        30.22S
* FORT BENTON  SUNNY     68  41  38 CALM      30.25F
* CHESTER      N/A       68  34  28 N2         N/A
* DENTON       N/A       70  45  41 W2G10      N/A
* JUDITH GAP   N/A       64  45  50 VRB10      N/A
* LOMA         N/A       68  39  35 SE5        N/A
$$

MTZ017>020-022>027-061-062-202000-
NORTHEAST MONTANA
CITY           SKY/WX    TMP DP  RH WIND       PRES   REMARKS
GLASGOW        PTCLDY    70  41  35 NW21G28   30.15S
JORDAN         PTCLDY    72  39  30 NW15G25   30.19F
SIDNEY         SUNNY     72  41  33 NW23G30   30.10R
WOLF POINT     SUNNY     72  39  30 NW25G31   30.13R
* BEAVER HILL  N/A       69  39  34 NW24G34    N/A
* CIRCLE       N/A       69  46  44 W14G21     N/A
* LINDSAY DVD  N/A       69  37  31 NW20G26    N/A
$$

MTZ028>042-056>058-202000-
SOUTHCENTRAL AND SOUTHEAST MONTANA
CITY           SKY/WX    TMP DP  RH WIND       PRES   REMARKS
BAKER          SUNNY     72  37  28 NW24G35   30.15S
BILLINGS       SUNNY     72  37  28 CALM      30.26S
LIVINGSTON     SUNNY     72  43  35 N5        30.27F
MILES CITY     SUNNY     73  43  34 N12G21    30.19S
* LAUREL APT   SUNNY     73  37  27 N/A        N/A
* ROUNDUP APT  SUNNY     72  39  30 N/A        N/A
* ALZADA       N/A       70  41  35 W19G24     N/A
* LAME DEER    N/A       66  43  43 VRB11G17    N/A
* REED POINT   N/A       75  42  31 N3         N/A
* ROSCOE HILL  N/A       66  33  29 NW4        N/A
$$

REGIONAL REPORTS...DAKOTAS
CITY           SKY/WX    TMP DP  RH WIND       PRES   REMARKS
WILLISTON      SUNNY     72  36  27 NW30G39   30.05R
DICKINSON      PTCLDY    70  39  32 NW24G35   30.05R
BEACH          N/A       70  37  30 NW23G36   30.12R
CROSBY         SUNNY     68  39  35 NW29G40   30.01R
TIOGA          SUNNY     68  36  31 NW28G39   30.03R
WATFORD CITY   SUNNY     72  37  28 NW20G33   30.02S
BISMARCK       SUNNY     72  46  40 NW22G36   29.97R
GRAND FORKS    CLOUDY    57  54  90 NW16G26   29.77R
FARGO          LGT RAIN  61  54  78 W18G35    29.80R
BUFFALO SD     SUNNY     72  43  35 NW23G31   30.07S
RAPID CITY     SUNNY     77  43  30 NW28G38   30.15R
$$

REGIONAL REPORTS...WYOMING/IDAHO/WASHINGTON
CITY           SKY/WX    TMP DP  RH WIND       PRES   REMARKS
GILLETTE       SUNNY     72  41  33 NW21G28   30.26R
SHERIDAN       SUNNY     72  43  35 N14G23    30.27R
CODY           SUNNY    N/A N/A N/A N/A        N/A
YELLOWSTONE LA SUNNY     57  43  60 E5        30.45F
SALMON         SUNNY     70  45  41 CALM      30.21F
MULLAN PASS    SUNNY     63  45  52 N/A       30.33S
SAND POINT     SUNNY     70  50  49 E5        30.21S
SPOKANE        SUNNY     73  48  41 NE8       30.18F
$$

REGIONAL REPORTS...ALBERTA
CITY           SKY/WX    TMP DP  RH WIND       PRES   REMARKS
CALGARY        SUNNY     63  36  37 S8        30.23F
LETHBRIDGE     SUNNY     66  37  34 SE10G17   30.24F
MEDICINE HAT   SUNNY     68  37  32 NW10G17   30.22F
EDMONTON       PTCLDY    64  37  37 W12       30.15S
WATERTON GATE  N/A       70  46  42 NE2        N/A
CARDSTON       N/A       68  45  44 E3         N/A
MILK RIVER     N/A       66  37  34 S3         N/A
$$

REGIONAL REPORTS...SASKATCHEWAN
CITY           SKY/WX    TMP DP  RH WIND       PRES   REMARKS
SWIFT CURRENT  SUNNY     64  36  35 NW25G32   30.12S
REGINA         SUNNY     64  43  47 NW29G36   30.00S
VAL MARIE      N/A       66  36  33 NW18G25    N/A
ASSINIBOIA     N/A       64  36  35 NW24G31    N/A
CORONACH       N/A       64  37  37 NW23G29    N/A

$$



USA.gov is the U.S. government's official web portal to all federal, state and local government web resources and services.